Ashland, Wisconsin
Current Conditions -  °F | °C
As of 5:58 AM on Friday 24 Oct 2014 (Local Time) from KASX Reporting Station
Haze Haze  
Wind Chill: 43°   Ceiling: Unl
Heat Index: 43°   Visibility: 3mi
Dew Point: 43°   Wind: 3mph
Humidity: 100%   Direction: 180°S
Pressure: 29.92"   Gusts: NA
Location:  46.59°N, 90.89°W
Report Text: KASX 241058Z AUTO 18003KT 3SM BR CLR 06/06 A2992 RMK AO2 T00610061
Loading
Personal Weather Stations






























Interactive Weather Map
Tropical Storm Tracking
New forecast layout! Learn more

10-Day Weather Forecast

Advertisements
Track Severe Weather on mobile